Wind_Speed
9 10 10 10 11 11 11 11 12 12 13 13 14 14 15 15 16 16 16 16 15 15 15 15 15 15 15 15 14 15 15 15 14 14 13 12 13 12 12 13 14 14 14 14 14 13 14 13 13 13 13 14 15 16 17 18 19 19 18 18 18 17 18 16 12 11 10 8 3 3 11 12 11 14 11 6 7 6 4 5 8 8 7 8 9 11 12 12
9 9 9 10 10 10 11 11 11 12 12 12 13 13 14 15 15 15 15 15 15 14 14 14 14 14 14 14 14 14 14 14 14 14 14 12 13 12 11 13 15 14 13 14 14 13 14 14 14 14 14 14 15 17 18 18 19 19 19 19 18 18 18 15 12 12 12 12 9 7 8 9 12 13 11 9 7 4 2 2 4 5 6 7 8 8 9 10
10 10 10 10 10 10 10 10 11 11 11 12 12 13 13 14 14 15 15 14 14 13 14 14 13 14 14 14 14 14 13 13 14 15 15 13 12 11 11 12 13 13 13 15 15 15 15 15 16 15 15 15 16 17 18 19 20 20 20 19 18 18 18 14 13 14 14 15 14 10 7 7 10 9 11 11 4 3 4 5 6 6 6 6 8 8 9 11
11 11 11 11 11 11 11 11 11 11 11 12 12 13 13 13 14 14 14 13 13 13 13 13 13 13 13 13 13 13 12 13 13 15 15 13 12 11 11 13 13 13 13 14 15 15 15 15 15 16 16 17 17 17 18 20 20 21 21 18 17 18 18 16 15 16 15 15 15 13 10 9 7 6 11 10 4 6 7 7 6 4 3 5 7 9 12 13
12 12 12 11 11 11 11 11 11 11 12 12 12 13 13 13 14 14 13 13 13 13 13 13 13 13 13 13 13 12 12 11 12 14 14 13 12 11 12 13 14 14 13 14 15 15 15 15 15 16 17 17 18 18 20 22 22 22 21 18 18 20 18 17 17 17 15 14 15 14 12 10 5 5 9 9 6 6 6 8 5 1 2 4 7 10 12 14
12 12 12 12 12 12 12 12 12 12 12 12 13 13 13 14 14 14 13 13 12 12 13 13 13 12 12 12 12 12 11 9 9 11 12 12 11 11 12 12 13 14 14 14 14 15 15 15 15 15 16 17 18 18 20 22 22 23 21 19 20 22 21 19 18 17 15 14 14 12 10 9 6 5 7 7 5 1 2 6 6 3 3 5 5 8 10 12
11 11 12 12 12 12 12 13 13 13 13 13 13 13 14 14 14 14 14 13 12 12 12 12 13 12 12 12 12 12 11 10 10 11 12 12 11 11 11 11 11 12 14 14 14 15 15 15 14 14 14 16 17 18 20 21 22 22 20 19 22 23 23 21 19 19 17 15 14 11 11 9 7 8 6 4 3 1 2 5 6 5 4 4 6 9 9 11
11 11 11 11 12 12 12 12 13 13 13 13 13 14 14 14 15 14 14 13 13 13 12 12 12 12 12 12 12 12 12 12 12 12 13 14 12 11 11 10 10 11 13 14 14 15 15 15 13 12 13 14 16 17 19 21 21 21 19 19 21 22 22 21 21 20 16 14 13 12 13 10 8 11 7 4 4 3 2 4 4 4 4 5 9 11 11 11
12 12 12 12 12 12 12 13 13 13 13 13 14 14 14 14 14 15 14 13 13 13 13 13 12 12 12 12 13 12 12 12 12 12 13 14 14 13 13 12 11 11 12 13 14 15 14 12 10 9 11 12 14 16 18 20 20 20 20 21 22 22 22 21 21 19 15 14 13 13 14 11 8 9 6 4 4 2 2 4 3 3 5 8 11 10 10 10
14 14 14 14 13 13 13 13 13 14 14 14 14 14 14 14 14 15 15 14 14 13 13 13 12 12 11 12 13 12 11 12 12 13 13 14 14 14 14 14 13 14 14 14 14 13 11 9 9 9 11 12 13 14 16 18 19 19 19 22 23 23 23 22 21 18 15 15 14 13 14 12 9 8 4 1 2 4 2 3 5 5 8 10 10 8 8 7
15 15 15 15 15 14 14 14 14 14 15 15 15 14 15 14 15 15 15 14 13 13 13 13 13 12 12 12 13 13 12 12 12 13 14 15 15 14 14 14 14 15 15 15 14 12 11 11 12 12 11 11 12 13 14 14 16 17 19 22 24 24 24 23 22 19 16 17 14 13 15 14 10 8 4 2 0 5 4 3 6 8 10 10 9 6 7 6
15 15 15 15 15 15 15 14 15 15 15 15 15 15 15 15 15 15 15 14 14 14 13 13 13 12 12 12 12 13 12 12 13 14 15 15 15 13 12 12 12 15 16 16 15 13 13 13 13 12 10 11 12 11 10 12 15 16 19 22 23 24 25 25 23 20 18 17 14 12 16 17 12 9 7 5 5 7 8 7 7 10 11 11 8 4 6 5
15 15 15 15 15 15 15 15 15 15 16 16 16 16 17 16 16 16 15 15 14 14 13 13 13 12 13 9 8 11 12 12 13 13 14 15 15 12 10 10 10 12 15 17 16 15 15 15 13 12 13 12 12 11 10 12 16 16 18 22 23 24 25 24 23 21 20 18 14 12 16 18 14 10 11 9 8 9 10 11 11 13 15 14 9 4 5 5
15 15 15 15 15 15 15 15 15 16 16 17 18 18 18 18 18 17 16 16 15 15 13 13 12 12 12 7 6 10 11 12 12 11 13 12 11 9 7 8 9 10 15 17 16 16 17 16 15 15 15 13 13 14 12 12 14 15 16 20 23 22 22 20 15 14 17 17 15 14 16 18 14 10 12 11 9 10 11 13 14 15 17 15 9 5 5 6
16 16 16 16 16 16 16 17 17 17 17 18 19 20 20 19 19 18 17 17 16 15 13 13 13 13 13 9 8 10 11 13 12 12 12 11 9 8 7 7 9 11 16 18 17 18 18 18 17 17 16 15 15 16 15 13 14 15 16 18 20 20 21 19 11 9 13 15 15 14 13 15 12 9 11 11 10 9 11 14 16 16 16 13 9 7 6 8
16 16 16 17 17 17 18 18 18 18 19 19 21 22 21 21 20 19 18 18 17 16 15 14 14 14 13 11 10 9 12 15 15 14 15 14 11 9 9 10 10 11 16 19 18 19 20 19 19 18 18 17 17 16 15 16 16 16 17 17 17 16 17 17 11 8 11 13 12 11 10 11 11 10 9 10 11 12 13 15 16 17 15 11 9 9 9 10
17 17 18 18 18 19 20 20 20 20 20 21 23 24 23 22 21 20 20 19 19 17 17 16 15 16 15 12 12 10 12 14 15 16 16 15 14 12 12 12 12 12 17 20 20 21 21 20 20 19 20 19 18 16 15 17 18 17 17 16 17 17 16 15 10 8 9 11 9 8 8 9 11 12 11 10 12 13 13 15 16 16 14 12 10 10 9 11
18 19 19 20 20 21 21 21 21 20 21 22 24 25 25 24 23 23 22 22 21 20 19 18 17 17 14 11 14 14 14 14 14 16 16 15 16 16 14 13 13 14 18 21 20 22 22 22 21 19 20 21 20 19 18 16 15 13 13 14 16 18 19 18 14 10 10 12 11 9 9 9 10 12 13 13 13 13 14 16 17 16 15 13 12 11 10 10
19 19 20 21 21 21 21 21 21 21 21 22 24 25 26 25 24 25 24 24 23 22 22 20 18 17 13 10 12 13 13 14 15 16 16 15 16 17 16 14 13 15 20 22 21 23 24 23 23 22 23 24 22 21 20 16 13 12 13 14 15 18 21 20 17 13 12 14 14 12 12 11 11 12 13 15 15 17 18 19 19 17 15 14 12 11 10 10
19 20 20 21 22 22 21 21 20 20 20 21 23 25 25 24 24 25 25 25 24 24 25 24 23 22 18 16 15 13 11 14 16 16 16 16 16 17 16 15 15 18 22 23 22 23 24 24 26 27 25 22 19 18 18 17 17 17 18 19 20 22 24 21 18 14 11 15 16 14 14 13 13 13 14 15 17 21 22 21 22 19 15 14 13 12 10 10
19 20 21 21 22 21 21 21 20 20 20 20 22 24 24 23 23 23 24 24 22 23 25 24 25 26 22 19 19 16 14 16 17 16 17 17 18 18 17 17 18 20 23 24 23 23 24 25 26 27 26 21 18 17 17 18 18 19 20 22 24 26 27 25 21 15 12 16 16 14 15 15 14 14 15 16 19 23 24 22 23 22 18 16 14 13 12 11
19 20 20 21 21 21 21 20 19 20 19 20 22 23 23 22 22 22 24 22 17 17 21 21 23 24 20 20 21 19 19 19 18 18 19 19 20 19 18 19 19 21 23 25 24 22 23 27 28 26 24 21 20 19 19 20 20 20 20 23 26 26 26 25 21 16 13 15 15 14 16 16 15 16 17 20 22 24 24 24 24 23 21 19 16 15 13 12
19 19 19 20 20 20 20 19 19 19 18 18 20 21 21 20 21 21 22 23 15 11 15 18 21 20 16 19 23 22 21 20 19 20 21 21 21 19 18 18 18 20 23 25 26 24 23 25 27 26 23 22 22 22 22 23 23 23 22 24 28 25 22 21 18 14 12 15 16 14 16 16 16 17 17 20 24 25 24 23 23 22 21 19 17 16 15 13
17 18 18 18 18 19 19 18 17 17 16 16 19 18 18 18 19 19 19 21 17 10 9 11 15 17 14 19 23 23 20 20 21 22 24 24 21 19 18 16 16 21 23 23 24 26 26 21 17 17 18 19 18 20 22 23 23 23 23 26 28 25 21 20 17 13 13 15 14 12 13 14 15 15 16 17 21 23 22 21 22 22 20 18 18 18 17 15
16 17 17 17 16 17 18 16 16 15 14 15 16 15 15 15 15 16 16 17 16 9 6 6 8 11 15 19 21 20 18 20 20 21 25 25 21 19 16 15 17 20 21 22 22 24 26 21 14 12 12 12 12 13 16 17 18 20 22 25 24 22 20 17 13 13 15 13 8 7 7 8 14 17 19 17 15 19 17 18 20 20 18 18 20 19 17 16
16 16 17 16 15 16 17 16 14 13 12 13 14 12 12 12 11 11 12 14 12 6 6 7 6 3 8 12 16 16 15 18 18 21 27 25 21 19 16 16 17 16 18 20 20 22 23 20 17 15 13 12 12 12 11 12 14 18 20 19 17 17 15 11 8 11 13 11 10 12 9 9 17 22 22 16 12 16 14 15 17 18 19 19 19 19 18 16
15 16 17 17 15 15 16 16 14 11 10 11 10 10 9 8 7 7 9 9 7 5 6 6 3 2 2 3 10 14 13 11 14 22 27 25 22 21 17 18 17 14 15 18 18 20 19 17 16 15 14 14 12 9 8 9 12 15 14 11 11 12 11 9 9 13 14 15 17 17 13 12 16 21 18 11 9 12 12 15 16 17 17 18 18 18 19 17
15 16 17 17 16 15 15 16 14 11 9 9 8 7 6 5 4 5 4 3 2 3 5 4 3 3 3 2 6 13 15 9 8 16 25 27 24 21 20 20 17 12 12 17 19 18 15 12 12 12 13 13 12 8 5 8 11 12 9 7 9 10 10 11 12 16 16 16 18 17 12 8 9 15 14 5 7 10 11 12 12 13 14 15 16 18 19 18
15 15 15 15 15 15 14 14 13 10 9 8 6 5 5 3 2 2 1 0 1 2 1 2 1 5 3 4 5 11 18 13 7 9 21 30 27 22 22 19 16 13 12 15 18 15 12 12 11 11 13 14 11 7 7 9 10 11 9 10 11 10 11 13 13 15 13 10 15 18 12 5 7 12 8 2 6 8 9 9 10 11 13 15 16 16 19 20
14 13 12 12 14 14 12 11 10 9 9 8 7 6 6 5 4 1 1 2 0 1 3 3 2 6 6 3 3 8 16 14 9 8 18 29 27 22 22 18 16 18 18 18 18 17 14 15 15 14 14 13 11 10 10 11 12 14 13 11 12 12 13 13 11 12 7 7 17 21 15 8 5 6 3 4 5 8 10 10 10 10 13 15 16 17 20 22
12 10 9 11 13 13 11 8 8 8 8 8 8 9 9 7 5 3 1 3 2 2 3 4 3 4 8 7 4 6 15 14 8 9 17 26 27 24 23 20 19 18 20 23 22 19 18 18 18 17 14 13 13 13 13 14 15 16 14 10 9 9 9 8 7 7 4 6 16 17 13 10 6 3 5 6 6 9 11 11 10 10 13 16 16 19 22 22
9 8 9 11 12 11 10 7 7 8 7 8 9 10 12 8 7 9 5 3 3 3 2 3 2 3 8 6 3 4 14 15 8 8 16 22 25 27 25 22 22 18 16 22 23 20 20 19 17 15 15 15 14 15 15 15 15 15 13 9 6 2 2 2 3 4 5 9 13 10 7 7 7 7 8 8 7 9 11 11 11 10 13 16 19 22 23 25
7 7 8 9 9 10 9 7 7 8 7 8 9 12 14 8 5 12 11 6 4 5 6 6 5 5 8 4 2 3 10 15 11 10 15 19 21 25 24 20 21 18 14 15 18 17 16 15 15 15 15 15 14 14 14 12 10 11 11 11 8 4 3 1 3 1 4 11 14 12 7 4 6 7 8 9 8 9 10 11 12 13 13 16 20 24 27 30
6 6 6 6 7 8 8 7 7 8 7 8 11 14 15 10 5 6 7 7 8 10 11 11 9 5 4 3 2 4 9 14 15 12 15 21 22 23 25 22 21 21 17 12 10 11 9 7 10 13 13 12 13 12 11 11 10 11 13 14 14 11 5 2 4 3 4 6 7 8 5 3 5 6 8 10 9 8 9 10 11 14 15 16 21 25 26 26
6 6 5 6 7 7 6 6 6 8 9 9 12 16 17 14 9 5 6 7 9 10 9 8 9 6 2 3 5 1 7 12 16 16 15 19 21 21 23 24 23 23 22 16 9 9 9 7 8 11 10 8 9 9 9 13 13 13 14 15 16 15 11 6 4 4 4 2 2 4 3 4 7 8 9 10 10 9 10 11 12 14 16 18 21 23 21 19
5 5 5 5 6 6 5 4 5 8 10 10 13 18 18 14 9 6 7 7 8 10 8 5 4 5 3 3 4 4 5 11 14 16 15 16 19 18 18 21 22 23 23 19 13 9 9 10 10 10 10 9 9 9 10 11 11 11 15 17 17 16 14 10 5 3 2 0 2 3 2 4 7 7 10 11 10 11 12 14 15 15 18 20 20 19 18 20
5 4 4 4 4 3 3 2 4 7 10 11 13 15 15 14 11 9 10 10 10 11 9 4 1 3 3 1 2 6 2 8 12 14 14 13 14 17 19 20 20 22 22 20 18 12 10 11 10 10 10 10 11 11 10 12 12 12 15 17 16 14 13 10 3 1 1 1 3 2 1 5 6 5 9 11 10 11 14 16 16 17 19 21 21 21 22 22
4 3 3 3 2 2 1 1 3 6 8 10 12 12 11 12 13 13 13 13 10 9 7 3 2 2 2 3 3 6 4 3 10 14 14 13 10 11 16 19 19 20 20 20 21 17 13 12 11 11 11 9 9 10 10 12 15 17 15 14 12 9 10 11 5 0 1 1 2 2 2 5 9 7 7 11 11 12 16 17 17 19 22 23 23 24 25 25
4 4 3 3 3 2 2 2 2 5 6 8 9 10 10 10 11 12 13 11 8 7 6 3 3 3 2 3 3 4 5 3 5 11 13 13 12 9 11 14 15 17 19 21 22 20 17 12 9 10 11 8 7 9 10 10 15 18 17 14 14 9 8 12 10 5 4 3 1 1 2 4 10 10 7 9 12 13 16 18 18 21 24 25 24 24 25 24
5 5 4 4 4 4 3 4 3 4 5 6 8 8 9 9 9 10 10 8 6 7 6 4 3 4 3 2 2 3 5 5 2 7 10 11 12 11 10 9 10 13 15 17 19 21 20 17 12 10 10 9 7 6 6 7 11 17 18 17 16 12 8 8 9 7 4 3 3 2 2 4 11 12 9 10 11 13 16 17 19 22 24 25 24 22 22 23
6 6 5 5 5 5 4 4 3 3 2 4 6 7 8 8 7 7 8 7 6 7 6 4 3 4 3 4 3 2 6 7 5 4 8 11 11 10 9 8 7 9 12 14 16 17 17 16 15 13 11 11 11 9 7 6 8 12 17 19 18 16 12 7 5 7 6 3 4 5 2 5 11 14 12 12 12 12 14 17 19 22 22 22 20 18 20 22
6 6 6 5 5 5 4 4 3 1 1 3 4 6 7 8 8 6 6 7 7 8 8 4 2 3 2 4 5 4 6 8 7 4 5 9 12 11 9 11 13 12 12 14 15 16 15 12 10 8 8 9 10 11 10 9 8 9 13 18 19 19 18 11 6 8 9 6 4 5 2 3 10 13 13 13 13 12 14 16 19 22 22 20 18 17 18 20
7 6 6 5 5 4 3 2 2 2 3 4 5 6 8 9 8 7 6 7 9 10 9 6 3 2 2 3 5 5 5 6 6 4 4 5 9 11 9 10 14 14 13 12 13 15 14 10 7 4 5 6 7 9 10 8 7 7 8 14 18 19 20 18 11 10 13 11 7 5 1 4 10 12 12 13 14 13 14 15 17 19 19 18 16 15 14 14
8 6 5 4 4 4 2 2 3 4 5 5 6 6 8 9 9 8 6 6 9 11 11 8 5 4 4 4 4 6 7 6 5 3 4 4 6 9 9 9 9 10 11 12 12 13 13 12 9 3 2 3 5 7 9 9 7 7 8 9 13 16 18 19 15 11 12 13 11 5 3 6 10 12 13 14 14 15 14 15 16 16 15 16 15 14 13 11
6 5 5 4 3 3 2 2 4 4 5 5 5 5 6 8 9 8 7 7 8 11 11 9 6 5 5 4 4 6 7 8 6 3 4 5 6 6 8 8 7 5 6 9 11 13 13 15 15 9 4 4 4 4 7 8 6 7 9 8 8 11 13 15 15 13 11 13 13 8 7 9 11 12 13 14 14 15 15 15 16 16 15 16 14 11 10 9
5 5 4 3 3 2 2 3 4 5 6 5 4 5 5 5 6 6 6 7 8 9 11 10 7 6 6 5 5 6 7 9 9 6 4 5 7 8 8 7 7 5 4 4 6 8 10 13 18 17 14 12 9 7 8 10 9 9 10 10 9 9 9 11 12 12 12 14 14 11 11 13 14 13 14 15 15 16 15 14 15 15 14 13 11 8 7 8
6 5 4 3 2 0 1 3 5 6 6 5 3 4 4 3 2 3 5 7 8 8 9 10 8 6 7 6 6 7 8 9 10 11 8 7 9 10 9 7 7 6 3 3 4 6 9 10 13 16 16 15 13 12 11 11 10 10 11 11 10 9 9 9 8 8 11 12 11 12 13 14 16 16 17 17 16 15 14 13 11 11 11 11 10 9 8 8
6 5 4 4 3 2 1 3 5 5 4 1 1 2 3 3 1 4 6 7 9 10 9 9 9 8 8 8 7 8 9 9 10 12 12 10 10 9 7 8 8 7 4 3 3 6 9 10 12 13 12 12 12 13 12 11 11 12 12 11 11 10 8 7 5 5 8 8 7 12 15 16 18 19 18 17 16 14 12 11 10 9 11 11 10 9 10 9
7 6 6 5 4 4 3 4 4 3 1 2 2 1 2 2 2 5 7 7 8 11 11 10 10 11 10 9 9 9 10 10 10 12 13 12 10 9 8 7 7 7 6 4 4 6 8 10 12 13 12 11 10 10 10 10 10 12 12 11 11 10 7 6 6 6 6 4 3 10 17 18 19 19 17 16 14 12 11 11 10 10 10 9 8 9 10 11
7 7 7 6 5 4 3 4 5 4 3 2 3 3 1 2 2 4 7 8 7 9 10 10 10 13 11 9 9 10 10 11 10 12 16 15 13 12 11 9 8 8 7 5 4 6 7 7 10 12 12 11 10 8 7 7 7 8 10 12 12 12 9 7 7 8 8 5 3 9 17 20 19 19 19 17 15 12 11 11 10 9 9 9 9 10 10 10
7 6 7 7 5 3 2 5 5 5 2 1 3 4 3 2 2 3 5 7 8 8 9 9 9 11 11 9 8 9 10 11 11 13 16 15 13 13 12 10 10 9 7 5 2 5 7 6 8 12 11 10 10 10 8 7 5 3 5 7 9 11 11 9 9 10 11 9 7 10 17 20 20 21 20 18 15 13 11 10 8 9 10 10 10 10 10 11
8 7 7 6 4 1 2 4 4 3 1 1 4 5 3 2 3 3 3 4 5 6 8 9 10 10 9 8 9 9 10 11 11 14 16 13 10 11 12 11 10 9 9 7 3 2 3 3 6 10 11 10 10 11 10 8 4 2 3 3 3 6 8 7 8 10 11 11 10 11 13 15 18 21 22 18 16 15 14 11 10 11 10 10 11 11 12 13
Wind_Direction
262 262 261 261 260 259 258 258 259 260 261 262 262 262 262 262 263 262 262 262 262 262 261 261 261 261 260 258 256 253 250 248 249 251 258 262 258 255 250 246 244 240 238 238 236 233 234 236 237 237 235 237 235 232 230 230 230 227 225 225 236 245 249 253 256 258 238 213 213 349 353 6 25 20 13 4 347 313 252 239 241 237 249 248 247 257 262 261
264 264 265 265 264 263 262 261 261 262 262 263 264 264 264 264 264 263 263 263 263 264 263 262 261 261 260 258 255 252 250 247 245 247 255 259 255 256 252 247 243 239 236 234 233 227 227 229 230 231 231 234 232 230 229 229 231 228 227 230 240 248 249 254 260 259 251 241 247 290 325 359 8 10 9 350 337 324 313 270 258 266 271 262 262 266 267 266
265 265 265 265 267 267 267 267 266 267 266 266 266 266 266 266 266 265 265 264 265 266 265 263 262 262 261 258 256 253 250 248 245 246 252 256 255 254 249 249 248 241 234 231 231 226 225 227 226 226 226 229 230 229 228 228 229 226 226 233 242 246 250 255 259 259 262 261 262 272 289 335 352 359 3 353 319 282 328 327 310 307 299 290 285 281 282 272
266 266 266 265 267 267 268 269 269 270 269 269 268 267 267 268 268 268 267 267 267 267 266 265 263 263 262 260 258 255 252 252 248 245 249 254 256 252 244 245 246 242 236 230 231 231 230 229 228 228 226 227 228 227 228 228 226 224 226 236 246 248 251 252 256 261 263 270 272 271 280 305 326 346 356 354 304 263 296 323 325 308 299 300 294 290 286 277
270 269 269 268 268 268 268 269 269 270 270 271 270 270 270 269 270 270 269 269 268 269 268 268 266 264 263 261 260 258 256 260 252 244 248 254 257 254 244 241 242 240 235 229 229 231 232 230 230 232 232 229 228 227 229 228 225 226 231 239 247 250 251 248 250 256 262 271 272 272 283 292 299 345 351 339 302 271 276 300 310 306 269 272 278 285 288 289
272 272 272 272 271 271 270 270 270 269 270 270 271 271 271 271 271 271 271 271 270 270 269 269 267 266 265 261 260 258 253 257 251 243 249 253 256 258 249 241 240 237 233 230 229 230 232 233 232 233 237 236 233 231 231 231 228 230 236 239 243 248 250 249 249 252 260 266 265 271 280 274 282 328 334 314 301 291 275 288 284 268 249 259 278 292 299 292
273 274 275 275 275 274 273 272 272 270 270 270 271 271 271 271 271 272 272 272 272 271 270 270 269 267 267 262 259 257 251 250 248 245 250 253 255 256 249 239 235 235 233 231 229 229 230 232 235 236 240 242 240 236 233 232 232 235 239 239 243 248 252 254 257 257 259 260 258 264 262 253 281 307 299 287 294 290 343 309 278 248 240 273 285 284 288 270
274 275 276 277 277 278 277 276 275 274 273 271 271 271 271 271 271 272 272 272 272 272 272 271 270 269 268 265 260 257 254 252 250 247 250 253 253 248 244 236 230 233 232 231 230 229 228 228 232 238 243 246 245 241 236 232 234 241 243 242 245 249 255 261 264 261 258 254 250 257 251 240 279 299 282 272 297 276 313 315 271 231 238 270 275 279 292 285
274 275 275 276 277 278 279 279 279 278 277 274 274 272 272 272 272 273 272 272 272 271 272 272 272 270 268 267 262 260 259 255 251 250 250 253 252 245 242 240 233 232 232 232 232 232 232 232 232 236 243 245 246 243 238 233 235 246 250 248 249 251 255 260 262 259 255 247 244 251 245 237 273 294 277 260 307 326 304 291 255 224 242 262 273 287 307 301
276 276 276 276 276 276 277 278 279 279 278 277 276 275 274 274 273 273 273 272 271 272 272 272 273 271 269 267 263 263 262 254 249 250 250 250 250 247 245 245 241 235 232 230 232 232 229 225 220 222 232 236 235 237 238 235 236 244 250 251 251 251 253 255 256 253 248 243 241 251 245 242 268 276 266 176 22 2 326 249 222 227 243 261 273 288 318 319
276 276 276 276 275 275 275 275 276 276 277 277 277 277 276 275 274 273 274 273 273 272 271 271 272 272 271 267 265 267 262 252 248 247 248 249 249 249 249 251 248 242 236 230 228 226 216 210 210 210 221 229 226 229 235 234 234 236 241 248 249 251 253 252 252 248 244 240 235 251 251 247 261 256 224 146 329 332 325 254 223 236 251 264 272 290 328 343
275 275 275 274 273 273 272 272 273 273 275 275 274 275 274 274 273 273 273 273 273 272 272 273 272 273 272 270 272 270 259 251 247 244 246 249 250 250 250 252 251 248 243 237 229 218 208 208 209 204 208 218 217 220 230 229 230 230 235 245 248 249 251 249 250 245 239 236 230 255 260 247 247 243 223 218 260 290 302 286 251 251 264 270 271 298 337 338
272 273 272 272 272 271 270 270 271 271 273 272 272 272 271 272 271 272 272 273 274 273 274 275 274 274 271 273 278 269 256 249 247 247 251 254 259 259 255 253 251 250 243 235 227 217 206 201 200 197 201 209 209 209 215 220 226 230 235 245 250 252 252 251 254 250 241 236 233 258 268 249 235 234 234 233 250 267 285 287 267 264 274 278 272 282 327 315
271 271 271 271 271 271 271 270 270 270 270 271 271 270 269 270 270 271 271 272 274 275 278 278 278 277 269 264 267 265 262 255 248 252 256 256 261 259 252 249 246 245 236 226 219 215 207 196 192 197 204 209 210 212 213 214 224 231 236 244 251 256 258 256 257 255 246 241 243 260 271 259 241 234 240 236 242 257 276 282 273 272 277 278 267 259 291 286
271 271 270 271 271 272 272 271 271 270 270 271 270 269 268 268 269 270 270 271 272 275 279 279 280 279 271 266 265 258 257 257 247 242 244 238 234 230 221 223 229 232 226 219 212 209 206 199 195 198 204 213 216 219 220 220 225 232 239 244 248 256 260 257 253 248 248 247 252 261 271 270 255 241 241 235 238 253 268 274 271 268 271 270 251 242 268 271
273 273 273 273 272 273 272 272 272 271 272 272 271 269 267 266 267 268 269 270 271 273 275 276 278 278 276 275 270 249 242 250 246 238 235 228 215 208 209 209 221 227 216 213 208 201 204 204 200 199 205 215 222 226 229 232 232 233 241 247 248 256 262 263 255 239 249 253 254 260 271 274 262 254 253 240 239 249 257 262 262 260 263 262 243 242 264 270
273 273 274 274 273 273 272 272 272 272 272 271 271 270 268 267 267 267 267 268 269 271 273 275 276 278 277 272 266 252 238 241 243 240 235 226 208 196 206 211 218 223 213 210 206 198 202 205 203 205 211 217 223 228 233 237 238 238 246 254 257 261 266 270 257 223 237 251 251 261 274 270 256 257 264 257 251 250 250 255 258 259 262 261 252 251 259 266
272 273 273 273 273 272 272 272 272 272 272 271 270 269 269 269 268 268 267 267 269 271 272 273 273 274 274 268 263 255 243 240 241 240 236 227 211 197 202 212 215 216 210 209 207 200 201 205 207 212 219 221 221 225 230 235 242 246 254 263 264 263 262 264 259 240 243 254 256 267 274 263 248 251 259 259 254 245 246 256 261 262 263 261 259 257 256 258
274 275 275 275 274 274 274 274 274 273 272 273 272 270 269 269 268 268 268 268 269 270 271 269 267 266 265 270 270 259 246 241 238 235 233 222 210 202 201 208 211 206 206 207 207 205 204 208 212 218 224 224 222 225 232 241 251 255 260 266 268 265 260 256 257 254 261 269 264 268 279 270 249 241 247 252 248 245 250 255 256 257 257 258 260 254 251 252
276 276 276 276 276 276 276 276 277 276 274 275 275 272 270 270 270 271 271 270 271 271 268 266 266 263 260 263 265 265 253 237 232 229 226 213 203 201 200 205 204 200 204 204 205 208 208 212 220 225 228 227 226 230 237 247 254 259 262 266 268 268 263 258 259 257 268 281 275 274 284 277 259 247 243 246 243 243 250 252 250 251 246 246 255 253 249 244
279 279 279 279 279 280 279 280 280 278 277 275 274 273 274 275 275 277 277 276 276 276 274 271 268 264 258 254 251 253 247 235 230 224 222 213 200 198 200 204 204 201 203 201 202 208 211 218 227 231 233 233 234 236 242 249 256 261 263 266 268 268 267 266 266 261 266 283 282 281 285 278 270 259 246 248 247 242 247 250 245 243 239 238 246 249 248 239
282 282 282 282 282 282 281 282 281 279 277 274 272 273 275 279 282 284 286 287 281 274 277 276 271 265 254 248 246 245 241 236 230 221 219 213 202 203 204 207 208 205 204 200 201 206 212 222 230 232 233 237 242 242 246 251 257 260 260 264 265 266 272 273 270 266 268 283 285 283 286 280 273 266 255 255 253 246 248 251 243 238 237 235 238 244 246 238
284 283 283 283 283 282 281 282 281 278 277 274 272 273 276 282 288 292 297 299 290 272 277 274 271 270 253 240 239 240 240 238 230 217 214 212 207 210 210 212 215 210 207 205 205 208 214 225 232 235 238 242 246 247 250 255 257 258 257 259 262 267 276 277 272 266 264 281 288 288 292 288 279 276 273 264 254 248 247 246 239 233 234 235 239 249 252 243
284 283 282 281 281 281 280 280 279 279 278 274 272 274 279 285 291 297 303 304 301 298 301 283 271 270 253 235 233 234 234 234 229 215 213 213 207 210 215 216 219 214 213 214 212 214 220 227 230 231 236 240 245 249 251 254 256 257 255 256 261 266 271 273 274 274 276 283 286 297 304 293 281 284 293 276 245 237 236 231 229 227 230 235 237 243 247 242
283 281 279 279 278 278 277 276 277 279 277 273 273 276 281 286 294 302 309 310 309 317 329 317 294 265 246 236 231 230 227 230 229 214 214 218 210 211 216 214 217 218 219 219 216 222 229 232 227 218 222 232 245 251 249 251 259 261 256 255 261 267 267 268 272 280 290 289 288 318 320 292 288 293 304 293 232 210 211 212 219 224 228 233 233 237 239 236
280 279 278 277 275 274 275 274 274 276 276 272 274 276 279 287 297 310 317 309 304 327 342 330 335 276 247 239 228 222 220 229 229 213 213 218 214 215 220 219 220 218 218 220 223 234 238 236 233 229 231 243 255 254 244 246 261 268 264 259 261 264 261 257 261 270 283 288 293 306 293 276 292 294 298 292 226 194 194 204 215 222 228 231 234 240 238 232
278 277 276 275 273 271 271 272 271 272 274 273 273 271 272 283 299 320 324 308 297 334 356 352 25 42 335 259 220 210 210 226 225 213 213 217 214 214 219 224 223 214 210 213 222 235 239 236 232 228 231 244 249 238 228 239 256 270 277 267 251 251 250 249 261 268 276 283 286 290 280 268 284 291 295 284 218 193 195 208 217 219 223 226 230 235 233 230
276 274 274 275 273 268 266 268 269 268 269 269 265 257 255 268 296 317 327 333 322 348 16 46 71 15 332 249 206 204 205 214 223 214 212 216 216 212 216 223 222 214 209 212 219 230 240 244 230 222 233 241 232 222 242 256 258 272 291 279 256 254 258 263 270 272 275 284 284 282 277 260 274 292 300 276 200 193 198 205 206 207 212 216 223 230 228 227
273 272 272 274 272 268 263 264 266 265 260 256 248 232 225 236 258 295 311 28 340 315 53 93 49 9 332 232 202 203 207 213 236 220 206 210 213 212 217 221 218 218 223 227 235 242 252 257 246 241 247 240 231 247 275 267 268 288 299 283 269 266 266 268 272 272 269 270 271 272 271 257 283 295 291 205 164 165 176 180 176 193 208 213 220 225 224 223
271 271 272 270 267 266 263 262 261 255 248 241 228 209 197 204 214 215 251 219 64 81 146 124 59 31 12 296 228 203 201 205 225 214 200 206 209 211 216 219 219 223 230 239 248 254 256 256 252 248 242 236 248 269 268 264 279 296 298 284 275 270 266 268 268 264 262 253 257 267 274 262 278 295 231 167 143 141 152 157 161 186 203 210 218 213 213 215
271 272 267 259 260 265 264 260 252 243 238 228 215 200 191 198 207 179 173 232 260 280 192 150 111 50 12 341 302 217 196 190 194 189 192 198 201 206 210 213 218 223 233 239 245 253 254 252 248 241 236 242 261 268 267 272 279 287 286 269 265 264 254 259 260 237 219 257 259 266 274 251 228 240 197 171 156 145 143 146 156 183 198 204 210 205 205 209
274 268 259 254 258 266 264 254 243 237 234 220 208 199 192 194 213 212 224 280 304 294 242 174 151 28 0 339 321 230 198 191 182 182 193 194 196 204 208 212 214 213 230 238 242 253 257 255 250 242 238 243 258 268 272 276 278 281 271 236 220 243 218 236 254 220 220 251 255 260 271 237 215 231 211 179 171 158 143 145 156 178 200 206 207 204 205 207
272 262 259 259 261 263 261 252 238 234 230 214 204 198 190 186 225 229 239 275 298 294 294 285 280 334 351 333 242 213 201 201 197 185 195 198 199 206 211 218 220 216 225 234 239 249 258 260 253 244 239 237 248 260 263 270 273 265 245 215 193 149 82 274 252 278 264 251 246 249 261 225 207 228 212 186 176 163 152 152 157 168 188 205 210 209 208 208
270 266 265 263 258 259 259 248 233 229 222 210 201 191 188 195 224 230 245 269 272 278 289 292 290 307 352 31 146 205 205 210 212 202 199 202 206 212 215 220 224 224 227 229 235 238 245 261 240 232 237 234 236 244 254 267 268 253 241 227 212 192 164 213 221 210 249 243 226 224 230 213 206 218 214 200 184 172 169 165 168 174 178 192 210 214 212 209
273 272 264 258 256 260 259 240 226 220 212 204 197 190 194 210 225 242 270 279 280 283 290 290 288 294 291 100 83 166 208 210 215 216 212 210 214 219 220 222 224 223 224 225 232 235 242 252 215 207 222 221 224 243 259 262 257 250 240 227 219 214 209 219 221 224 248 257 160 183 204 219 215 214 215 209 201 197 189 179 185 187 183 191 205 213 212 198
276 269 256 251 250 255 258 235 214 211 209 203 197 199 208 219 228 246 268 282 295 300 308 300 278 299 278 179 85 67 202 208 209 214 219 220 223 227 228 227 226 225 225 224 226 225 236 246 229 222 229 224 237 260 260 250 241 229 223 220 221 222 220 222 225 234 262 291 196 199 199 200 204 211 209 202 202 204 193 187 193 191 188 194 199 204 204 191
269 255 240 237 237 243 254 232 201 203 207 204 202 209 220 230 235 246 261 273 290 300 309 325 295 333 347 209 75 58 141 202 204 210 214 214 223 231 232 233 232 231 232 231 229 227 237 248 242 236 237 238 248 258 251 242 233 220 217 219 217 212 213 214 212 54 81 161 228 233 235 202 193 203 208 200 196 199 194 192 195 193 190 193 193 194 195 194
245 224 215 212 196 198 198 175 189 199 202 206 212 220 229 236 242 253 263 270 279 285 286 298 289 292 357 344 1 40 49 178 197 208 212 210 218 229 230 235 237 235 235 235 232 232 242 255 253 243 242 245 247 248 245 235 228 228 230 226 216 207 206 200 189 112 164 195 281 291 290 227 208 209 213 205 200 199 198 198 198 195 191 193 197 197 194 198
214 198 195 185 168 170 171 164 183 193 198 211 220 228 236 240 246 255 264 267 264 257 245 248 283 265 273 319 334 18 24 37 192 211 216 214 216 222 229 235 239 237 235 234 232 230 233 246 261 254 246 245 243 245 247 235 225 227 231 229 225 224 208 193 191 193 178 179 233 293 326 246 215 215 213 206 205 204 204 203 200 195 191 192 199 201 199 208
200 189 189 186 182 184 175 170 174 178 196 216 221 230 242 247 249 253 262 262 243 232 222 223 290 292 251 244 295 341 343 344 292 224 220 214 213 218 228 238 244 241 233 228 228 227 228 235 248 254 246 243 243 245 248 241 227 221 218 214 211 208 197 188 199 205 177 155 161 164 305 237 209 211 211 206 205 206 209 207 201 198 196 196 199 205 211 222
193 187 193 198 195 193 179 164 147 142 193 227 227 235 249 253 248 244 252 249 224 218 219 219 296 299 259 218 220 303 315 311 312 255 218 213 212 211 208 208 217 219 212 208 208 211 217 224 239 254 257 252 253 259 261 253 234 223 221 215 207 205 201 179 189 209 196 180 172 167 223 234 212 211 210 208 205 202 206 207 203 200 199 203 211 224 235 239
191 189 199 207 204 202 191 175 158 125 272 270 260 255 257 259 255 241 238 231 213 212 216 222 278 288 244 212 218 257 299 299 302 284 227 217 217 214 202 189 184 179 180 185 188 193 199 207 227 251 261 258 260 260 253 245 236 230 228 223 216 217 215 204 198 197 187 185 178 162 165 242 226 219 209 208 206 198 199 205 207 205 205 214 226 235 242 246
199 199 207 216 220 220 212 208 236 308 320 305 292 280 273 271 269 262 249 229 214 213 218 230 252 237 207 219 224 236 268 291 298 273 240 223 216 215 212 200 194 191 194 196 190 188 195 205 217 245 276 261 240 224 213 206 208 208 215 220 219 221 221 219 219 200 184 181 168 146 149 224 225 220 205 205 206 200 202 206 209 211 217 227 235 238 241 246
208 210 213 222 238 246 250 280 308 318 309 296 294 289 283 281 277 269 261 243 221 214 217 225 225 208 222 240 226 225 239 259 278 251 200 199 208 211 213 210 206 208 215 220 218 213 214 220 219 213 335 262 220 206 198 187 180 180 183 199 213 219 221 221 220 205 189 186 180 173 168 193 218 216 196 196 204 206 209 212 215 220 227 237 243 248 250 247
211 206 210 222 241 258 281 319 323 318 304 295 294 292 290 288 282 271 260 251 235 224 220 219 212 209 224 236 228 230 232 231 233 202 161 173 187 193 197 200 202 209 216 221 226 229 230 230 227 216 186 192 206 214 207 202 198 184 176 179 197 209 214 217 214 206 198 194 192 190 167 175 207 213 191 186 196 204 210 215 219 225 232 240 244 242 240 232
210 204 218 240 255 277 329 325 310 306 309 313 313 313 313 304 288 271 252 240 235 234 230 223 215 216 223 231 241 237 228 222 217 205 179 169 169 164 165 179 191 195 212 224 222 228 233 232 231 229 222 218 221 217 207 209 209 193 180 180 186 194 203 209 209 209 207 196 190 192 188 186 195 200 194 192 193 198 204 211 219 227 234 241 234 214 211 216
217 219 233 248 247 250 323 309 302 302 309 318 326 328 335 346 309 250 224 219 217 220 229 228 223 224 224 226 235 229 221 219 217 215 209 189 182 172 155 163 184 188 220 261 239 232 236 230 228 229 227 226 227 226 220 217 214 201 190 184 179 180 192 202 208 212 205 192 186 195 196 187 185 193 200 199 195 196 198 205 219 223 219 218 210 201 207 218
219 223 233 237 222 203 243 300 305 302 304 320 40 8 5 13 319 216 200 207 209 203 207 216 216 223 233 232 226 219 214 206 199 205 205 194 196 192 163 166 185 185 197 236 236 231 233 226 221 222 220 218 220 220 218 220 218 209 202 198 188 176 175 187 196 193 190 192 201 198 189 181 186 197 202 200 198 198 195 200 212 208 199 202 206 209 212 220
220 221 228 229 213 212 254 306 323 336 46 121 130 78 4 336 278 217 196 201 210 204 205 211 211 218 231 235 225 219 219 207 189 189 192 187 191 195 177 170 184 188 187 190 214 232 231 222 216 215 212 208 209 210 209 213 216 211 209 213 210 198 185 180 171 158 163 174 198 194 187 185 192 200 201 201 202 199 193 197 201 199 199 203 213 223 219 219
219 221 220 217 213 232 284 344 6 22 50 111 152 151 192 268 261 228 215 218 220 207 203 205 207 213 219 222 219 220 222 218 202 191 189 181 179 187 182 166 166 184 193 193 215 237 238 226 212 208 204 196 192 192 189 189 198 207 213 221 226 225 218 204 186 174 173 172 170 189 189 188 191 195 199 203 204 200 202 207 202 193 196 205 219 232 227 222
209 209 209 215 226 250 347 26 23 16 25 154 173 167 180 216 214 216 222 227 231 220 208 203 204 208 207 205 210 216 220 222 218 210 201 185 171 173 171 162 163 175 182 175 196 245 252 242 215 206 204 195 187 184 179 177 180 193 200 204 214 218 213 204 196 188 189 193 188 186 190 192 191 191 195 201 204 203 208 215 216 211 207 209 219 231 232 227
195 190 197 215 231 271 13 34 31 17 24 173 182 183 192 211 207 203 203 217 228 224 221 222 218 210 206 208 211 214 220 224 222 218 212 199 182 172 164 160 165 171 173 165 157 221 246 227 205 204 203 201 201 200 198 200 208 217 198 161 164 191 189 184 191 194 196 201 199 192 195 201 200 195 194 197 202 207 210 212 223 233 232 230 229 231 234 230
Height
3090 3090 3090 3090 3090 3090 3090 3089 3089 3089 3089 3090 3090 3090 3090 3090 3090 3090 3091 3091 3091 3092 3092 3092 3092 3092 3092 3092 3092 3092 3093 3093 3093 3093 3093 3093 3094 3094 3094 3094 3094 3095 3095 3095 3096 3097 3097 3098 3099 3100 3101 3101 3102 3103 3103 3104 3105 3106 3108 3109 3109 3108 3108 3109 3111 3112 3113 3113 3113 3114 3113 3112 3111 3111 3111 3111 3113 3114 3114 3115 3116 3117 3118 3119 3119 3120 3120 3119
3089 3089 3089 3089 3089 3089 3088 3088 3088 3088 3088 3088 3088 3088 3088 3088 3088 3089 3089 3089 3090 3090 3090 3090 3090 3090 3090 3091 3091 3091 3091 3091 3091 3092 3092 3092 3092 3093 3093 3093 3093 3094 3094 3094 3095 3095 3096 3097 3098 3099 3099 3100 3101 3102 3102 3103 3104 3105 3106 3107 3107 3107 3107 3109 3111 3111 3112 3112 3112 3113 3113 3113 3112 3111 3111 3111 3113 3114 3115 3116 3116 3117 3117 3118 3119 3119 3119 3119
3088 3088 3088 3088 3088 3088 3087 3087 3087 3087 3087 3087 3087 3087 3087 3087 3087 3087 3087 3088 3088 3088 3088 3088 3089 3089 3089 3089 3089 3089 3089 3089 3090 3090 3090 3090 3091 3092 3092 3092 3092 3093 3093 3093 3093 3094 3095 3096 3096 3097 3098 3099 3099 3100 3101 3102 3103 3104 3105 3106 3105 3105 3106 3109 3110 3110 3111 3111 3111 3112 3113 3113 3112 3112 3112 3112 3112 3113 3115 3116 3116 3117 3117 3118 3118 3119 3119 3118
3087 3087 3087 3086 3086 3086 3086 3086 3086 3086 3086 3086 3085 3085 3085 3085 3085 3085 3085 3086 3086 3087 3087 3087 3087 3087 3087 3087 3087 3087 3088 3088 3088 3088 3088 3089 3090 3090 3091 3091 3091 3091 3092 3092 3093 3093 3094 3095 3096 3096 3097 3098 3098 3100 3100 3101 3101 3102 3104 3105 3104 3105 3106 3108 3109 3109 3110 3110 3110 3111 3112 3112 3112 3112 3112 3112 3112 3113 3115 3116 3116 3117 3117 3118 3118 3118 3118 3118
3086 3086 3085 3085 3085 3085 3085 3085 3084 3084 3084 3084 3084 3084 3083 3083 3083 3083 3084 3084 3084 3085 3085 3085 3086 3086 3086 3086 3086 3086 3086 3086 3086 3086 3087 3088 3088 3089 3089 3089 3090 3090 3091 3091 3092 3092 3093 3094 3095 3095 3096 3097 3097 3099 3099 3099 3100 3101 3102 3103 3103 3104 3105 3106 3107 3108 3109 3110 3110 3111 3111 3111 3111 3111 3111 3111 3111 3112 3114 3115 3116 3116 3117 3117 3118 3118 3118 3117
3084 3084 3084 3084 3084 3084 3083 3083 3083 3083 3082 3082 3082 3082 3082 3082 3082 3082 3082 3082 3083 3083 3083 3083 3084 3084 3084 3084 3084 3084 3085 3085 3085 3085 3086 3086 3087 3087 3088 3088 3089 3089 3090 3090 3091 3091 3092 3093 3094 3094 3095 3096 3097 3098 3098 3098 3099 3100 3101 3102 3102 3103 3103 3104 3106 3107 3108 3109 3109 3110 3110 3110 3111 3111 3111 3110 3111 3111 3112 3114 3115 3115 3116 3117 3118 3118 3117 3116
3083 3083 3083 3082 3082 3082 3082 3082 3081 3081 3081 3081 3080 3080 3080 3080 3080 3080 3080 3081 3081 3081 3081 3082 3082 3082 3082 3082 3083 3083 3083 3084 3083 3084 3084 3085 3086 3086 3086 3087 3087 3088 3089 3089 3090 3090 3091 3092 3093 3094 3095 3095 3096 3097 3098 3098 3099 3100 3101 3101 3101 3101 3102 3103 3104 3105 3106 3107 3108 3109 3109 3110 3111 3110 3110 3110 3110 3111 3111 3113 3114 3114 3116 3117 3117 3116 3115 3115
3082 3081 3081 3081 3081 3081 3081 3080 3080 3080 3079 3079 3079 3079 3079 3078 3078 3078 3079 3079 3079 3079 3079 3080 3080 3080 3080 3080 3081 3081 3082 3082 3082 3083 3083 3084 3085 3085 3085 3086 3086 3087 3088 3088 3089 3089 3090 3090 3092 3093 3094 3095 3096 3097 3097 3097 3098 3099 3100 3100 3100 3101 3101 3102 3103 3103 3105 3106 3107 3108 3108 3110 3110 3110 3110 3110 3110 3111 3111 3112 3113 3114 3115 3115 3115 3114 3115 3116
3081 3080 3080 3080 3080 3080 3079 3079 3079 3078 3078 3078 3077 3077 3077 3077 3077 3077 3077 3077 3077 3077 3078 3078 3078 3078 3079 3079 3079 3080 3080 3080 3081 3082 3082 3082 3083 3084 3084 3085 3086 3086 3086 3087 3088 3088 3089 3090 3091 3092 3093 3094 3095 3096 3096 3097 3098 3098 3099 3099 3099 3100 3101 3101 3101 3102 3104 3105 3106 3107 3108 3109 3110 3110 3109 3110 3110 3110 3111 3112 3113 3114 3114 3113 3114 3115 3116 3116
3079 3079 3079 3078 3078 3078 3078 3078 3077 3077 3076 3076 3076 3075 3075 3075 3075 3075 3075 3075 3075 3076 3076 3076 3076 3077 3077 3077 3077 3078 3078 3079 3080 3080 3081 3081 3082 3083 3083 3084 3085 3085 3085 3086 3087 3087 3088 3089 3090 3091 3091 3092 3094 3095 3095 3096 3097 3098 3098 3098 3098 3098 3099 3100 3100 3102 3103 3104 3105 3106 3107 3108 3108 3109 3109 3109 3110 3110 3111 3112 3112 3112 3112 3112 3114 3116 3116 3115
3077 3077 3077 3077 3077 3077 3076 3076 3076 3075 3075 3074 3074 3074 3073 3073 3073 3073 3073 3074 3074 3074 3074 3074 3075 3075 3075 3075 3076 3076 3077 3077 3078 3079 3079 3080 3080 3082 3082 3083 3083 3084 3084 3085 3085 3086 3087 3088 3088 3089 3090 3091 3093 3094 3094 3095 3096 3097 3097 3096 3096 3097 3097 3098 3099 3101 3102 3102 3104 3105 3105 3106 3107 3108 3109 3109 3109 3110 3111 3112 3111 3111 3111 3112 3114 3116 3115 3115
3075 3075 3075 3075 3075 3075 3075 3075 3074 3074 3073 3073 3073 3072 3072 3071 3071 3072 3072 3072 3072 3072 3073 3073 3073 3073 3073 3074 3074 3074 3075 3076 3076 3077 3078 3078 3079 3080 3081 3082 3082 3083 3084 3084 3084 3084 3085 3086 3086 3088 3089 3091 3092 3093 3094 3095 3095 3096 3096 3095 3095 3095 3095 3096 3098 3100 3101 3101 3103 3104 3103 3103 3106 3107 3108 3108 3109 3110 3111 3110 3110 3110 3111 3112 3114 3116 3116 3115
3073 3073 3074 3074 3074 3074 3073 3073 3073 3072 3072 3072 3071 3071 3070 3070 3070 3070 3070 3071 3071 3071 3071 3072 3072 3072 3072 3073 3073 3072 3073 3074 3074 3075 3076 3077 3078 3079 3080 3080 3081 3082 3082 3082 3082 3083 3083 3084 3085 3087 3088 3090 3091 3092 3093 3093 3094 3095 3095 3094 3093 3094 3094 3095 3097 3098 3100 3101 3102 3103 3101 3101 3104 3106 3107 3108 3108 3109 3109 3109 3109 3109 3110 3112 3114 3115 3116 3116
3072 3072 3072 3072 3072 3072 3072 3072 3071 3071 3070 3070 3069 3068 3068 3068 3068 3068 3069 3069 3069 3069 3070 3070 3070 3071 3070 3071 3071 3071 3072 3072 3073 3074 3074 3075 3077 3078 3078 3079 3079 3080 3081 3081 3081 3082 3082 3082 3084 3085 3087 3089 3090 3091 3092 3092 3093 3094 3094 3093 3093 3093 3093 3095 3096 3097 3099 3100 3101 3102 3100 3100 3102 3104 3105 3106 3107 3108 3108 3108 3107 3108 3109 3111 3113 3115 3115 3115
3070 3070 3070 3070 3070 3070 3070 3070 3069 3069 3068 3068 3067 3066 3066 3066 3066 3066 3067 3067 3068 3068 3069 3069 3069 3069 3069 3069 3069 3070 3070 3070 3071 3072 3072 3074 3075 3076 3077 3077 3078 3079 3079 3079 3080 3080 3081 3081 3082 3084 3086 3088 3089 3090 3091 3092 3092 3093 3093 3092 3092 3092 3092 3094 3096 3097 3098 3099 3100 3100 3099 3099 3101 3102 3103 3104 3105 3106 3107 3106 3106 3107 3108 3111 3113 3114 3114 3115
3068 3068 3068 3068 3068 3068 3068 3068 3067 3067 3067 3066 3065 3064 3064 3064 3064 3065 3065 3065 3066 3066 3067 3067 3068 3067 3067 3067 3067 3068 3068 3068 3069 3070 3071 3072 3073 3074 3075 3076 3077 3077 3078 3078 3078 3079 3080 3081 3081 3083 3085 3086 3087 3089 3090 3090 3091 3091 3091 3091 3092 3092 3092 3093 3095 3096 3097 3097 3098 3098 3098 3099 3100 3100 3101 3103 3104 3105 3105 3105 3105 3106 3108 3110 3112 3113 3114 3114
3066 3066 3066 3066 3066 3066 3066 3066 3065 3065 3065 3064 3062 3061 3061 3062 3062 3063 3063 3063 3064 3065 3065 3066 3066 3066 3066 3066 3066 3066 3066 3066 3067 3068 3069 3070 3071 3072 3073 3075 3075 3076 3077 3077 3077 3078 3079 3080 3081 3082 3084 3085 3087 3088 3089 3089 3089 3090 3090 3091 3091 3091 3091 3092 3094 3095 3096 3096 3096 3097 3097 3098 3099 3099 3099 3101 3102 3103 3104 3103 3104 3105 3107 3110 3111 3112 3113 3114
3064 3064 3064 3064 3064 3063 3063 3063 3063 3063 3063 3061 3060 3059 3059 3059 3060 3060 3060 3061 3062 3063 3063 3064 3064 3064 3064 3065 3064 3064 3064 3065 3066 3066 3067 3068 3069 3070 3071 3073 3073 3075 3075 3076 3077 3077 3078 3079 3080 3082 3083 3084 3085 3086 3086 3087 3088 3090 3090 3090 3090 3090 3090 3091 3093 3094 3094 3094 3095 3095 3096 3097 3098 3098 3098 3099 3100 3101 3101 3101 3102 3104 3106 3108 3110 3111 3112 3113
3062 3062 3062 3062 3061 3061 3061 3061 3061 3061 3060 3059 3057 3057 3057 3058 3058 3057 3058 3059 3060 3060 3061 3061 3062 3062 3063 3063 3063 3063 3063 3064 3064 3065 3066 3067 3067 3068 3069 3070 3071 3073 3074 3075 3076 3076 3077 3078 3079 3080 3080 3081 3083 3085 3085 3087 3088 3089 3089 3089 3089 3088 3088 3089 3091 3093 3094 3093 3093 3094 3094 3095 3096 3097 3097 3097 3099 3099 3098 3099 3100 3102 3105 3107 3108 3110 3111 3112
3059 3060 3060 3059 3059 3058 3058 3058 3058 3058 3058 3057 3055 3055 3055 3055 3055 3055 3055 3056 3057 3057 3057 3058 3059 3060 3061 3062 3062 3062 3062 3062 3062 3063 3064 3065 3066 3067 3067 3069 3069 3071 3072 3073 3075 3075 3076 3076 3076 3077 3078 3081 3083 3084 3086 3087 3087 3088 3088 3088 3087 3086 3085 3087 3090 3092 3093 3092 3091 3093 3093 3093 3094 3095 3095 3095 3096 3095 3095 3096 3098 3100 3102 3104 3106 3108 3109 3111
3057 3057 3057 3057 3056 3056 3055 3056 3056 3056 3056 3055 3054 3053 3053 3052 3052 3052 3052 3053 3055 3054 3054 3055 3055 3055 3057 3060 3060 3060 3060 3060 3061 3062 3062 3063 3064 3065 3066 3067 3067 3069 3070 3072 3072 3073 3074 3074 3075 3076 3079 3081 3083 3084 3085 3086 3086 3086 3087 3086 3086 3084 3083 3085 3088 3090 3091 3090 3090 3091 3091 3091 3092 3092 3092 3092 3093 3093 3093 3094 3096 3098 3100 3102 3104 3106 3107 3109
3054 3054 3054 3054 3053 3053 3053 3053 3053 3053 3054 3053 3052 3051 3050 3050 3050 3050 3050 3050 3052 3052 3050 3051 3050 3050 3053 3055 3056 3057 3057 3058 3060 3061 3061 3062 3062 3063 3064 3065 3066 3067 3069 3070 3070 3071 3072 3072 3073 3076 3078 3080 3082 3083 3084 3084 3085 3085 3085 3085 3083 3083 3083 3083 3086 3088 3090 3089 3088 3089 3088 3088 3088 3088 3089 3089 3089 3090 3090 3091 3094 3096 3098 3100 3101 3103 3105 3107
3052 3051 3051 3051 3051 3051 3051 3051 3051 3052 3052 3052 3050 3049 3049 3049 3049 3049 3049 3048 3048 3049 3048 3047 3046 3047 3049 3051 3052 3053 3054 3056 3058 3059 3059 3060 3061 3062 3063 3064 3065 3067 3067 3068 3069 3070 3070 3071 3073 3075 3077 3079 3080 3081 3082 3082 3083 3083 3083 3083 3080 3082 3083 3083 3084 3087 3088 3087 3086 3086 3085 3085 3085 3085 3085 3086 3086 3086 3088 3089 3092 3094 3096 3098 3099 3101 3103 3105
3049 3049 3049 3049 3049 3049 3049 3050 3050 3050 3051 3050 3048 3048 3048 3048 3048 3048 3048 3047 3046 3045 3045 3044 3043 3044 3045 3046 3047 3049 3051 3053 3055 3056 3057 3058 3059 3061 3062 3063 3064 3065 3066 3067 3068 3068 3069 3071 3073 3075 3076 3078 3078 3079 3080 3080 3080 3081 3081 3080 3079 3081 3083 3082 3083 3085 3085 3085 3085 3084 3083 3081 3081 3082 3082 3082 3081 3082 3084 3086 3089 3092 3094 3095 3097 3098 3100 3102
3047 3047 3047 3047 3048 3047 3048 3048 3048 3049 3049 3048 3047 3047 3047 3048 3048 3048 3048 3047 3045 3043 3043 3042 3041 3041 3041 3042 3044 3046 3049 3050 3052 3055 3055 3056 3059 3060 3061 3062 3063 3064 3065 3066 3068 3067 3068 3071 3073 3074 3074 3076 3077 3077 3078 3079 3079 3079 3078 3078 3079 3080 3081 3082 3083 3084 3083 3083 3082 3083 3082 3079 3078 3079 3079 3078 3078 3079 3081 3084 3087 3089 3092 3093 3094 3095 3098 3100
3045 3045 3045 3045 3046 3046 3046 3047 3047 3048 3047 3047 3046 3046 3047 3047 3048 3048 3048 3046 3044 3042 3041 3040 3040 3039 3039 3040 3042 3045 3047 3048 3051 3053 3053 3055 3058 3059 3060 3060 3061 3063 3064 3066 3067 3066 3067 3070 3071 3072 3073 3074 3075 3076 3077 3078 3078 3077 3076 3077 3079 3079 3080 3081 3082 3082 3082 3081 3080 3082 3082 3079 3076 3076 3077 3076 3076 3076 3078 3081 3084 3087 3089 3090 3092 3094 3096 3098
3043 3043 3043 3044 3045 3045 3045 3045 3046 3047 3046 3045 3045 3046 3046 3047 3048 3048 3047 3046 3043 3041 3041 3039 3039 3039 3039 3040 3041 3044 3046 3047 3048 3050 3051 3053 3055 3057 3058 3059 3059 3061 3063 3065 3065 3064 3065 3067 3069 3070 3072 3072 3073 3074 3075 3077 3077 3075 3075 3077 3078 3078 3079 3079 3081 3081 3080 3079 3079 3079 3080 3079 3075 3075 3075 3074 3074 3074 3076 3079 3082 3084 3086 3088 3090 3091 3093 3096
3041 3042 3042 3042 3043 3044 3044 3044 3044 3045 3045 3044 3044 3045 3046 3047 3047 3047 3048 3047 3043 3040 3040 3039 3039 3039 3039 3040 3040 3042 3044 3045 3046 3047 3049 3051 3053 3055 3056 3057 3059 3060 3061 3062 3062 3062 3064 3066 3067 3069 3070 3070 3071 3072 3074 3075 3075 3074 3075 3077 3077 3078 3078 3079 3080 3080 3080 3079 3077 3076 3078 3078 3075 3074 3073 3073 3072 3073 3075 3077 3079 3081 3083 3085 3087 3089 3092 3094
3040 3040 3041 3041 3041 3042 3042 3042 3043 3044 3044 3043 3043 3044 3045 3046 3047 3047 3048 3046 3041 3039 3040 3039 3040 3039 3039 3039 3040 3040 3042 3044 3044 3045 3047 3049 3051 3053 3055 3056 3058 3060 3061 3061 3061 3062 3064 3065 3066 3067 3068 3069 3070 3072 3073 3073 3073 3073 3075 3076 3076 3077 3077 3078 3079 3078 3079 3079 3075 3073 3076 3077 3075 3073 3072 3072 3072 3072 3074 3076 3078 3080 3082 3084 3085 3087 3090 3092
3038 3039 3039 3039 3039 3040 3040 3041 3041 3042 3042 3042 3043 3043 3045 3046 3046 3047 3048 3044 3039 3039 3039 3039 3039 3039 3038 3039 3039 3039 3040 3042 3043 3044 3045 3047 3049 3052 3054 3056 3057 3058 3059 3060 3060 3061 3063 3064 3065 3065 3066 3067 3069 3070 3071 3071 3072 3072 3073 3074 3074 3075 3076 3077 3077 3078 3079 3077 3073 3072 3075 3077 3076 3073 3072 3073 3072 3073 3074 3075 3077 3079 3081 3082 3084 3086 3088 3090
3037 3038 3038 3038 3038 3038 3039 3040 3040 3040 3041 3041 3042 3043 3044 3045 3046 3048 3046 3041 3039 3039 3038 3039 3039 3038 3039 3038 3038 3039 3040 3041 3042 3042 3043 3045 3048 3050 3052 3054 3055 3057 3058 3058 3058 3059 3061 3062 3062 3063 3065 3066 3067 3068 3069 3069 3070 3071 3071 3072 3073 3074 3074 3076 3076 3077 3078 3075 3071 3072 3074 3075 3075 3073 3072 3073 3073 3073 3073 3075 3077 3079 3080 3081 3083 3085 3086 3089
3036 3036 3036 3036 3037 3037 3038 3038 3039 3039 3040 3040 3041 3042 3043 3045 3045 3044 3042 3039 3039 3038 3038 3038 3038 3038 3038 3038 3038 3038 3039 3040 3041 3041 3042 3044 3046 3048 3049 3051 3052 3055 3056 3056 3056 3058 3058 3059 3060 3062 3063 3064 3065 3066 3067 3067 3067 3068 3069 3070 3072 3073 3074 3076 3076 3077 3076 3072 3070 3072 3072 3072 3073 3073 3072 3072 3072 3073 3073 3074 3075 3077 3079 3080 3081 3083 3084 3085
3035 3035 3035 3035 3036 3036 3036 3037 3037 3038 3038 3039 3040 3041 3042 3044 3043 3040 3039 3039 3039 3038 3038 3038 3038 3038 3038 3037 3037 3037 3038 3040 3040 3041 3042 3043 3045 3046 3048 3050 3051 3053 3054 3054 3056 3056 3056 3057 3058 3060 3061 3062 3063 3064 3064 3065 3065 3066 3067 3068 3070 3072 3075 3077 3077 3077 3074 3070 3069 3071 3071 3071 3071 3071 3072 3072 3072 3072 3073 3073 3074 3075 3076 3077 3079 3080 3080 3081
3034 3034 3034 3034 3034 3034 3035 3035 3036 3036 3037 3038 3039 3040 3041 3042 3040 3039 3039 3039 3038 3038 3038 3038 3037 3038 3038 3037 3037 3036 3037 3039 3040 3041 3043 3043 3045 3046 3047 3049 3050 3052 3053 3054 3055 3055 3055 3055 3056 3058 3059 3060 3061 3062 3063 3063 3064 3064 3065 3066 3067 3069 3071 3073 3073 3073 3071 3069 3069 3070 3070 3070 3070 3070 3071 3071 3072 3072 3072 3073 3074 3074 3075 3076 3077 3077 3079 3084
3032 3032 3033 3033 3033 3033 3033 3034 3035 3035 3036 3037 3038 3038 3039 3039 3038 3038 3038 3038 3037 3037 3038 3037 3037 3037 3038 3038 3037 3036 3037 3038 3039 3041 3042 3043 3044 3044 3046 3047 3048 3050 3052 3053 3054 3054 3054 3054 3055 3057 3058 3059 3060 3061 3061 3062 3062 3063 3064 3065 3066 3066 3068 3069 3069 3069 3069 3069 3068 3068 3069 3069 3069 3070 3070 3070 3070 3071 3072 3073 3073 3074 3074 3074 3075 3077 3082 3087
3031 3031 3031 3032 3032 3032 3032 3032 3033 3034 3035 3036 3036 3037 3037 3037 3038 3038 3037 3037 3037 3037 3037 3037 3037 3037 3037 3037 3037 3036 3036 3037 3038 3039 3041 3042 3043 3044 3044 3045 3047 3048 3050 3051 3052 3053 3053 3053 3054 3055 3057 3058 3058 3059 3059 3060 3060 3061 3062 3063 3064 3065 3066 3067 3067 3068 3069 3069 3068 3068 3069 3069 3069 3069 3069 3069 3069 3070 3071 3072 3072 3073 3073 3073 3076 3080 3084 3086
3030 3030 3030 3031 3031 3031 3031 3032 3032 3033 3034 3035 3035 3036 3036 3037 3037 3037 3036 3036 3037 3037 3037 3037 3037 3037 3037 3037 3036 3036 3036 3036 3037 3038 3039 3041 3041 3042 3043 3044 3045 3047 3048 3050 3051 3052 3052 3052 3053 3054 3055 3056 3057 3057 3057 3058 3059 3060 3060 3061 3062 3064 3065 3065 3066 3068 3069 3069 3067 3067 3068 3068 3068 3068 3068 3069 3069 3069 3070 3071 3071 3072 3073 3074 3076 3079 3082 3084
3029 3029 3030 3031 3031 3031 3031 3032 3032 3033 3033 3034 3034 3035 3036 3036 3036 3035 3035 3036 3036 3036 3037 3037 3036 3036 3036 3036 3036 3035 3035 3035 3036 3037 3038 3039 3040 3040 3041 3043 3044 3045 3047 3049 3050 3051 3051 3051 3051 3052 3054 3054 3055 3055 3055 3056 3057 3058 3059 3060 3061 3062 3062 3063 3064 3066 3068 3069 3069 3068 3068 3067 3066 3066 3067 3068 3069 3069 3070 3070 3071 3072 3073 3074 3075 3077 3079 3082
3028 3029 3030 3030 3031 3031 3031 3032 3032 3032 3033 3033 3034 3034 3034 3035 3035 3034 3034 3035 3036 3036 3036 3036 3036 3036 3036 3036 3035 3035 3035 3035 3036 3037 3037 3038 3039 3039 3040 3041 3042 3044 3045 3047 3048 3049 3051 3051 3050 3051 3052 3053 3053 3053 3053 3054 3055 3056 3057 3059 3059 3060 3060 3060 3061 3062 3064 3068 3069 3068 3067 3066 3065 3066 3067 3067 3068 3069 3069 3070 3071 3071 3073 3074 3075 3077 3080 3081
3028 3029 3030 3030 3031 3031 3031 3031 3032 3032 3032 3032 3033 3033 3033 3033 3033 3033 3033 3034 3035 3035 3035 3036 3036 3035 3035 3035 3035 3035 3035 3035 3035 3036 3036 3037 3038 3039 3040 3040 3041 3042 3043 3045 3046 3048 3049 3050 3049 3049 3050 3051 3052 3052 3052 3052 3053 3053 3055 3056 3057 3058 3059 3059 3060 3061 3061 3064 3067 3068 3067 3065 3064 3065 3066 3067 3068 3069 3069 3070 3071 3072 3073 3075 3076 3079 3081 3082
3027 3029 3029 3030 3030 3031 3031 3031 3031 3031 3032 3032 3032 3032 3032 3032 3032 3032 3032 3033 3034 3034 3034 3035 3035 3035 3035 3035 3035 3034 3034 3034 3034 3034 3035 3036 3037 3038 3039 3039 3040 3041 3042 3043 3044 3046 3047 3048 3048 3048 3049 3050 3050 3050 3051 3051 3051 3052 3052 3053 3054 3056 3057 3058 3059 3060 3060 3061 3064 3065 3064 3063 3063 3064 3065 3066 3067 3068 3069 3070 3071 3072 3074 3076 3078 3080 3081 3081
3027 3028 3029 3029 3030 3030 3030 3030 3031 3031 3031 3031 3031 3031 3031 3031 3031 3032 3032 3032 3032 3033 3033 3034 3034 3034 3034 3034 3034 3034 3034 3033 3033 3033 3034 3035 3036 3037 3038 3039 3040 3040 3041 3042 3043 3044 3045 3046 3047 3047 3048 3048 3049 3049 3050 3050 3051 3051 3051 3052 3053 3054 3055 3056 3057 3058 3059 3060 3061 3062 3062 3062 3063 3064 3064 3066 3067 3068 3069 3070 3071 3073 3075 3077 3078 3079 3079 3080
3027 3028 3029 3029 3029 3030 3030 3030 3030 3030 3030 3030 3030 3030 3030 3030 3030 3030 3031 3031 3031 3032 3032 3033 3033 3033 3033 3034 3034 3034 3033 3033 3033 3033 3033 3034 3035 3036 3037 3038 3039 3039 3040 3041 3042 3043 3044 3044 3045 3046 3047 3047 3048 3048 3049 3049 3049 3050 3050 3051 3052 3052 3053 3054 3055 3056 3057 3058 3059 3061 3062 3062 3062 3063 3064 3065 3066 3068 3068 3070 3071 3073 3075 3076 3077 3077 3078 3079
3027 3028 3028 3029 3029 3029 3029 3029 3029 3029 3029 3029 3029 3029 3028 3028 3028 3029 3030 3030 3030 3031 3031 3032 3032 3033 3033 3033 3033 3033 3033 3033 3033 3032 3032 3033 3034 3035 3037 3037 3038 3039 3039 3040 3041 3042 3043 3043 3044 3045 3047 3047 3048 3048 3048 3048 3048 3049 3049 3049 3050 3051 3052 3053 3054 3055 3055 3056 3058 3059 3060 3061 3061 3062 3064 3065 3066 3067 3068 3069 3070 3072 3074 3075 3075 3076 3076 3077
3026 3027 3028 3028 3029 3029 3028 3028 3028 3028 3028 3028 3027 3027 3027 3027 3027 3027 3028 3029 3029 3029 3030 3031 3032 3032 3032 3032 3032 3032 3032 3032 3033 3033 3032 3033 3033 3034 3035 3036 3037 3038 3039 3040 3040 3041 3042 3042 3042 3043 3046 3047 3048 3047 3046 3047 3048 3048 3048 3049 3049 3050 3050 3051 3052 3053 3054 3055 3056 3057 3058 3059 3060 3061 3063 3064 3065 3066 3067 3068 3069 3071 3073 3074 3074 3074 3075 3077
3026 3027 3028 3028 3028 3028 3027 3027 3027 3027 3027 3026 3026 3026 3026 3026 3025 3026 3027 3027 3028 3029 3029 3030 3031 3031 3032 3032 3032 3032 3032 3032 3032 3033 3033 3033 3033 3033 3035 3036 3036 3037 3038 3039 3039 3040 3040 3040 3040 3041 3043 3045 3045 3046 3046 3046 3047 3047 3047 3048 3048 3049 3049 3050 3051 3051 3051 3053 3055 3055 3056 3057 3059 3060 3062 3063 3063 3064 3066 3067 3069 3071 3072 3073 3074 3074 3075 3077
3026 3027 3027 3027 3027 3027 3027 3027 3027 3026 3026 3025 3025 3025 3025 3025 3025 3025 3026 3026 3027 3028 3029 3030 3030 3030 3031 3031 3031 3031 3031 3031 3032 3032 3032 3032 3033 3032 3033 3035 3035 3036 3037 3038 3038 3039 3039 3039 3039 3040 3041 3043 3044 3044 3045 3045 3046 3046 3046 3047 3047 3048 3048 3049 3049 3050 3051 3052 3053 3054 3055 3056 3058 3059 3060 3061 3062 3064 3065 3067 3069 3070 3072 3073 3073 3073 3074 3076
3026 3026 3027 3027 3027 3027 3027 3027 3026 3025 3025 3025 3025 3025 3025 3025 3025 3025 3026 3026 3026 3027 3028 3028 3029 3029 3030 3030 3030 3030 3030 3030 3030 3031 3031 3032 3032 3032 3032 3033 3034 3035 3036 3037 3037 3038 3038 3039 3039 3040 3041 3042 3043 3043 3044 3044 3045 3045 3046 3046 3047 3047 3048 3048 3049 3049 3050 3051 3052 3053 3054 3055 3057 3058 3059 3060 3062 3063 3065 3067 3068 3070 3071 3072 3072 3073 3074 3075
3025 3026 3026 3026 3026 3026 3026 3026 3026 3025 3024 3024 3025 3025 3025 3025 3025 3025 3026 3026 3026 3026 3026 3027 3028 3028 3029 3029 3029 3029 3029 3029 3029 3029 3030 3031 3031 3032 3031 3032 3033 3034 3035 3036 3037 3038 3038 3039 3039 3040 3040 3041 3042 3042 3042 3043 3044 3045 3045 3046 3046 3047 3047 3048 3048 3049 3050 3051 3051 3052 3053 3054 3056 3057 3059 3060 3062 3063 3065 3066 3068 3069 3071 3072 3073 3073 3074 3075
3025 3025 3026 3026 3026 3026 3026 3026 3025 3025 3024 3024 3025 3025 3025 3025 3025 3025 3025 3025 3025 3025 3026 3026 3027 3027 3027 3028 3028 3029 3028 3028 3028 3028 3028 3029 3030 3031 3031 3032 3032 3034 3035 3036 3037 3037 3038 3038 3039 3039 3040 3041 3041 3042 3042 3043 3043 3044 3044 3045 3046 3046 3047 3047 3048 3048 3049 3050 3051 3052 3052 3053 3055 3057 3058 3060 3061 3063 3064 3066 3067 3070 3071 3072 3073 3074 3074 3075
3024 3025 3025 3025 3026 3026 3026 3026 3025 3025 3025 3025 3025 3025 3025 3025 3025 3025 3025 3025 3025 3025 3025 3025 3026 3026 3027 3027 3027 3028 3028 3028 3028 3027 3028 3029 3028 3029 3030 3031 3032 3033 3034 3035 3036 3037 3037 3038 3038 3038 3039 3040 3041 3042 3042 3043 3043 3044 3044 3044 3045 3045 3046 3047 3047 3048 3049 3050 3050 3051 3052 3053 3054 3056 3057 3059 3061 3063 3064 3066 3067 3069 3071 3072 3073 3074 3075 3076
3024 3024 3025 3026 3026 3026 3026 3026 3026 3026 3026 3025 3025 3025 3025 3025 3025 3025 3025 3024 3024 3024 3025 3025 3025 3025 3026 3026 3026 3027 3027 3027 3027 3027 3029 3029 3028 3028 3029 3030 3031 3033 3034 3035 3036 3036 3036 3037 3037 3038 3039 3040 3041 3041 3042 3043 3043 3044 3044 3045 3045 3045 3045 3046 3047 3047 3048 3049 3050 3051 3052 3054 3055 3056 3057 3059 3061 3063 3064 3066 3067 3068 3070 3071 3073 3073 3075 3076